Location: Basse Occidentale du Courleau
(48.3833°N, 4.8333°W)
Time: 00:15:01
(UTC+00:00)

BREEZE-M DEB (TANK) - Visible Passes

Search period start: 24 October 2020 00:00
Search period end: 03 November 2020 00:00
Orbit: 333 x 12040 km, 49.7° (Epoch: 23 October)

Date Brightness Start Highest point End Pass type
(mag) Time Alt. Az. Time Alt. Az. Time Alt. Az.
24 Oct 8.7 00:05:47 10° SSE 01:23:06 44° ESE 02:13:08 10° NE visible
24 Oct 8.0 04:10:00 10° SW 05:51:44 87° SSE 06:23:29 10° ENE visible
24 Oct 8.7 23:30:02 10° SSE 00:41:54 37° E 01:31:00 10° NE visible
25 Oct 8.2 03:26:18 10° SW 05:06:32 84° SSE 05:43:04 10° ENE visible
25 Oct 8.8 22:57:31 11° SE 00:01:31 31° E 00:48:09 10° NE visible
26 Oct 8.3 02:52:00 18° SSW 04:21:11 79° SE 05:02:30 10° ENE visible
26 Oct 8.9 22:25:18 10° ESE 23:21:56 24° E 00:04:10 10° NE visible
27 Oct 8.4 02:18:16 25° SSW 03:36:00 73° SE 04:21:47 10° ENE visible
27 Oct 7.3 06:39:30 10° W 08:10:13 89° NNE 08:28:21 10° ESE visible
27 Oct 8.9 21:58:37 10° ESE 22:43:09 18° E 23:18:09 10° ENE visible
28 Oct 8.5 01:43:49 30° S 02:51:19 67° SE 03:40:54 10° ENE visible
28 Oct 7.5 05:50:07 10° WSW 07:27:13 88° N 07:48:24 10° E visible
28 Oct 9.0 21:40:06 10° E 22:05:06 13° ENE 22:26:41 10° ENE visible
29 Oct 8.5 01:08:56 34° S 02:07:21 60° ESE 02:59:46 10° ENE visible
29 Oct 7.7 05:03:07 11° WSW 06:43:25 87° N 07:08:20 10° E visible
30 Oct 8.6 00:33:41 35° SSE 01:24:14 54° ESE 02:18:22 10° ENE visible
30 Oct 7.9 04:27:50 19° WSW 05:58:51 89° N 06:28:05 10° E visible
30 Oct 8.6 23:58:12 34° SE 00:42:00 47° ESE 01:36:36 10° NE visible
31 Oct 8.0 03:52:16 27° SW 05:13:32 89° SSE 05:47:43 10° E visible
31 Oct 8.7 23:22:28 31° SE 00:00:41 40° E 00:54:24 10° NE visible
01 Nov 8.2 03:16:30 34° SW 04:27:41 85° SSE 05:07:11 10° ENE visible
01 Nov 8.7 22:46:32 27° ESE 23:20:13 33° E 00:11:32 10° NE visible
02 Nov 8.3 02:40:31 41° SSW 03:41:39 81° SE 04:26:29 10° ENE visible
02 Nov 8.8 22:10:24 22° ESE 22:40:35 27° E 23:27:43 10° NE visible
